This demonstration page uses our WeatherBlox Daily Observations layout. Learn more.

Left ArrowRight Arrow

34.02893, -84.19858

Hourly Observations for October 13, 2015

Temp ( °F °C ) Dew Point ( °F °C ) Humidity (%) Winds ( mph kmh ) Pressure ( in mb ) Visibility ( mi km ) Precip ( " mm )
12:53 am 00:53 Clear 59 15 57 13.9 93 93 Calm 29.79 1009 10 16 0.00 0.00
1:53 am 01:53 Mostly Cloudy 64 17.8 55 12.8 73 73 SW 9 15 29.77 1008 10 16 0.00 0.00
2:29 am 02:29 Cloudy with Nearby Thunderstorms 66 18.9 55 12.8 68 68 WSW 12 19 29.77 1008 10 16 0.00 0.00
2:53 am 02:53 Mostly Clear with Thunderstorms 61 16.1 59 15 93 93 Calm 29.80 1009 3 5 0.09 2.29
2:58 am 02:58 Mostly Clear with Nearby Thunderstorms 61 16 59 15 94 94 WNW 3 6 29.80 1009 3 4 0.00 0.00
3:09 am 03:09 Mostly Clear with Nearby Thunderstorms 61 16.1 59 15 93 93 NNW 7 11 29.83 1010 10 16 0.02 0.51
3:23 am 03:23 Cloudy 61 16.1 60 15.6 97 97 SE 3 6 29.80 1009 10 16 0.02 0.51
3:53 am 03:53 Mostly Cloudy with Light Rain 60 15.6 60 15.6 100 100 Calm 29.78 1009 8 13 0.02 0.51
4:53 am 04:53 Cloudy 61 16.1 60 15.6 97 97 S 7 11 29.77 1008 10 16 0.00 0.03
5:53 am 05:53 Mostly Cloudy 61 16.1 60 15.6 97 97 SSW 6 9 29.77 1008 10 16 0.00 0.03
6:53 am 06:53 Cloudy 61 16.1 60 15.6 97 97 SW 6 9 29.78 1009 10 16 0.01 0.25
7:53 am 07:53 Cloudy 61 16.1 60 15.6 97 97 SSW 6 9 29.80 1009 8 13 0.00 0.00
8:53 am 08:53 Mostly Cloudy 63 17.2 61 16.1 93 93 SW 8 13 29.80 1009 8 13 0.00 0.00
9:53 am 09:53 Sunny 65 18.3 62 16.7 90 90 WSW 10 17 29.82 1010 10 16 0.00 0.00
10:53 am 10:53 Mostly Sunny 68 20 62 16.7 81 81 W 9 15 29.83 1010 10 16 0.00 0.00
11:13 am 11:13 Mostly Cloudy 69 20.6 62 16.7 78 78 W 9 15 29.83 1010 10 16 0.00 0.00
11:39 am 11:39 Partly Cloudy 71 21.7 63 17.2 76 76 W 9 15 29.83 1010 10 16 0.00 0.00
11:53 am 11:53 Partly Cloudy 72 22.2 63 17.2 73 73 SW 8 13 29.83 1010 10 16 0.00 0.00
12:53 pm 12:53 Partly Cloudy 75 23.9 62 16.7 64 64 VRB 5 7 29.83 1010 10 16 0.00 0.00
1:53 pm 13:53 Sunny 77 25 59 15 54 54 WNW 9 15 29.80 1009 10 16 0.00 0.00
2:53 pm 14:53 Sunny 79 26.1 55 12.8 44 44 WNW 12 19 29.78 1009 10 16 0.00 0.00
3:53 pm 15:53 Sunny 80 26.7 52 11.1 38 38 W 13 20 29.78 1008 10 16 0.00 0.00
4:53 pm 16:53 Sunny 80 26.7 49 9.4 34 34 WNW 9 15 29.78 1008 10 16 0.00 0.00
5:53 pm 17:53 Sunny 77 25 52 11.1 42 42 W 8 13 29.78 1008 10 16 0.00 0.00
6:53 pm 18:53 Sunny 73 22.8 53 11.7 50 50 W 7 11 29.79 1009 10 16 0.00 0.00
7:53 pm 19:53 Clear 70 21.1 55 12.8 59 59 WNW 7 11 29.82 1010 10 16 0.00 0.00
8:53 pm 20:53 Clear 68 20 49 9.4 51 51 WNW 5 7 29.85 1011 10 16 0.00 0.00
9:53 pm 21:53 Clear 67 19.4 46 7.8 47 47 NW 8 13 29.86 1011 10 16 0.00 0.00
10:53 pm 22:53 Clear 64 17.8 46 7.8 52 52 NW 5 7 29.88 1012 10 16 0.00 0.00
11:53 pm 23:53 Clear 63 17.2 46 7.8 54 54 NW 8 13 29.89 1012 10 16 0.00 0.00

Powered by AerisWeather